Вернуться в каталог

ONEWEB-0162

АктивенСвязьPO
NORAD 48056·PAYLOAD·🇬🇧 United Kingdom

Запущен Mar 25, 2021 с Vostochny Cosmodrome

Loading…

Ближайшие Пролёты (ближайшие 24 часа)

TLE

СвежийSource: CelesTrak SupGP

Эпоха: Sep 15, 2026, 02:25 UTC

1 48056C 21025Q   26258.10123102  .00000526  00000+0  14423-2 0  2582
2 48056  87.8927 302.3361 0001938 100.7960 285.8849 13.13473618    10

Отслеживайте ONEWEB-0162 в реальном времени с AllMySat

Download on the App Store